Retour au catalogue

MISRSAT-2

ActifScienceSSO
NORAD 58497·PAYLOAD·🇪🇬 Egypt

Lancé Dec 4, 2023 depuis Jiuquan Satellite Launch Center

Loading…

Prochains Passages (prochaines 24 heures)

TLE

FraisSource: Space-Track

Époque: Sep 14, 2026, 15:22 UTC

1 58497U 23187B   26257.64093881  .00000846  00000-0  10960-3 0  9992
2 58497  97.9224 338.8632 0010274 208.4601 151.6053 14.83416257150307

Suivez MISRSAT-2 en temps réel avec AllMySat

Download on the App Store